Miscellaneous Local Product
Issued by NWS North Platte, NE

Home | Current Version | Previous Version | Text Only | Print | Product List | Glossary On
Versions: 1 2 3 4 5 6 7 8 9 10 11 12 13 14 15 16 17 18 19 20 21 22 23 24 25 26 27 28 29 30 31 32 33 34 35 36 37 38 39 40 41 42 43 44 45 46 47 48 49 50
392
AXUS43 KLBF 262010
MISLBF


WESTERN AND NORTH CENTRAL NEBRASKA HOURLY WEATHER ROUNDUP
NATIONAL WEATHER SERVICE NORTH PLATTE NE
300 PM CDT THU MAY 26 2016

NOTE: "FAIR" INDICATES FEW OR NO CLOUDS BELOW 12,000 FEET WITH NO
SIGNIFICANT WEATHER AND/OR OBSTRUCTIONS TO VISIBILITY.

NOTE: STATIONS NOT REPORTING VARIABLES SUCH AS SKY/WEATHER OR
PRESSURE ARE PROVIDED BY RAWS AND APRS NETWORKS AND ARE NOT UNDER
NATIONAL WEATHER SERVICE QUALITY CONTROL.

...OBSERVATIONS IN AND NEAR THE EASTERN PANHANDLE OF NEBRASKA...

CITY           SKY/WX    TMP DP  RH WIND       PRES   REMARKS
PINE RIDGE     FAIR      74  45  35 N9        29.87F
CHADRON        PTSUNNY   71  41  33 NW9       29.88F
ALLIANCE       PTSUNNY   69  41  36 CALM      29.88F
SIDNEY         CLOUDY    68  45  43 N14       29.90F
CRESCENT LAKE    N/A     65  43  44 E3          N/A
BIG SPRINGS      N/A     71  52  50 E12         N/A
$$

...OBSERVATIONS IN NORTHERN NEBRASKA AND FAR SOUTHERN SOUTH DAKOTA...

CITY           SKY/WX    TMP DP  RH WIND       PRES   REMARKS
WINNER         FAIR      75  52  44 S10       29.83F
VALENTINE      FAIR      75  46  35 SW10      29.84F
THEDFORD       FAIR      74  48  39 CALM      29.86F
AINSWORTH      FAIR      70  50  48 S3        29.85F
O`NEILL        FAIR      76  52  42 CALM      29.85F
ORD            FAIR      77  51  40 VRB6      29.81F
BROKEN BOW     FAIR      76  47  35 VRB5      29.83F
BUTTE            N/A     68  54  61 E3          N/A
CHAMBERS         N/A     78  59  52 SE3         N/A
EWING            N/A     76  57  51 CALM        N/A
$$

...OBSERVATIONS IN SOUTHWEST NEBRASKA AND FAR NORTHEAST COLORADO...

CITY           SKY/WX    TMP DP  RH WIND       PRES   REMARKS
WRAY           FAIR      75  43  31 NE17G26   29.82F
IMPERIAL       FAIR      75  46  35 NE16G26   29.81F
OGALLALA       FAIR      73  49  42 N3        29.85F
NORTH PLATTE   FAIR      77  47  34 E13G22    29.82F
MCCOOK         FAIR      74  56  53 E17G24    29.77F
LEXINGTON      FAIR      73  60  61 NE13G18   29.80F
PAXTON           N/A     73  51  45 NE10        N/A
STAPLETON        N/A     76  46  34 E3          N/A
GOTHENBURG       N/A     74  47  37 NE9         N/A
CALLAWAY         N/A     74  56  52 E8          N/A
$$

...OBSERVATIONS IN CENTRAL LINCOLN COUNTY AREA...

CITY           SKY/WX    TMP DP  RH WIND       PRES   REMARKS
N.P. AIRPORT   FAIR      77  47  34 E13G22    29.82F
N.P. DOWNTOWN    N/A     76  46  33 E7G15       N/A
N.P. SOUTHEAST   N/A     78  44  29 E3          N/A
N.P. HILLCREST   N/A     76  46  33 E12G20      N/A
$$

...SOME OBSERVATIONS FROM AROUND THE REGION...

CITY           SKY/WX    TMP DP  RH WIND       PRES   REMARKS
DENVER         HAIL      53  45  74 NW15      29.90R
LARAMIE        PTSUNNY   55  35  47 E9        29.97F
CHEYENNE       LGT RAIN  56  36  47 E20       29.95S
SCOTTSBLUFF    FAIR      68  41  37 S6        29.89F
RAPID CITY     PTSUNNY   69  45  41 VRB7      29.87F
BISMARCK       PTSUNNY   71  47  42 SW9       29.79F
PIERRE         FAIR      74  54  49 S7        29.80F
SIOUX FALLS    PTSUNNY   75  54  47 CALM      29.85F
OMAHA          PTSUNNY   81  60  48 NE9       29.74F
GRAND ISLAND   FAIR      72  59  63 NE9       29.80F
KANSAS CITY    TSTM      72  62  71 E20       29.77F
WICHITA        PTSUNNY   78  71  79 E8        29.72F
OKLAHOMA CITY  PTSUNNY   83  72  69 S21G28    29.77F
DALLAS         CLOUDY    78  63  59 SE13      29.84F
AMARILLO       FAIR      88  31  13 SW15G33   29.76F
DODGE CITY     FAIR      81  54  39 VRB3      29.69F
HAYS           PTSUNNY   66  63  88 SE8       29.74R
$$




USA.gov is the U.S. government's official web portal to all federal, state and local government web resources and services.